Regional Weather Roundup
Issued by NWS

Home | Current Version | Previous Version | Text Only | Print | Product List | Glossary On
Versions: 1 2 3 4 5 6 7 8 9 10 11 12 13 14 15 16 17 18 19 20 21 22 23 24 25 26 27 28 29 30 31 32 33 34 35 36 37 38 39 40 41 42 43 44 45 46 47 48 49 50
909
ASUS45 KABQ 221510
RWRNM
NEW MEXICO REGIONAL WEATHER ROUNDUP
NATIONAL WEATHER SERVICE ALBUQUERQUE NM
900 AM MDT FRI MAY 22 2015

NOTE: "FAIR" MEANS FEW OR NO CLOUDS BELOW 12,000 FEET AGL WITH NO
       SIGNIFICANT WEATHER OR OBSTRUCTIONS TO VISION.

      THIS PRODUCT IS RELEASED AS TWO VERSIONS.  ONE VERSION NEAR
      THE TOP OF THE HOUR CONTAINING PRELIMINARY DATA FROM ALBUQUERQUE
      AND OTHER STATIONS.  A FINAL VERSION WITH ADDITIONAL DATA IS
      ISSUED ABOUT 10 MINUTES AFTER THE HOUR.

NMZ501-503-504-510>518-221600-
NORTHWEST PLATEAU/NORTHCENTRAL MOUNTAINS

CITY           SKY/WX    TMP DP  RH WIND       PRES   REMARKS
FARMINGTON     SUNNY     56  40  55 E9        30.04F
LOS ALAMOS     PTSUNNY   44  44 100 S7        30.17S
SANTA FE       PTSUNNY   48  42  80 SE12      30.15R
TAOS           CLOUDY    45  34  65 CALM      30.18R
ANGEL FIRE     CLOUDY    40  36  84 SW8       30.19R

$$
NMZ402-403-502-505>509-221600-
WESTCENTRAL MOUNTAINS/SOUTHWEST MOUNTAINS

CITY           SKY/WX    TMP DP  RH WIND       PRES   REMARKS
GALLUP         MOSUNNY   55  33  43 CALM      30.07F
GRANTS         PTSUNNY   49  44  83 SE13      30.12F
SILVER CITY      N/A     57  34  41 SE8       30.12R

$$
NMZ407-409-411-412-221600-
SOUTHERN DESERTS

CITY           SKY/WX    TMP DP  RH WIND       PRES   REMARKS
LORDSBURG      FAIR      63  30  29 SE9       30.04S
DEMING         SUNNY     61  49  64 E8        30.07R
LAS CRUCES     SUNNY     62  52  70 SE10      30.10R
HOLLOMAN AFB   SUNNY     58  52  79 N3        30.10R
ALAMOGORDO     SUNNY     57  50  77 CALM      30.12R
T OR C         MOSUNNY   56  50  80 SE5       30.09R

$$
NMZ519>523-221600-
CENTRAL VALLEYS/CENTRAL HIGHLANDS

CITY           SKY/WX    TMP DP  RH WIND       PRES   REMARKS
ALBUQUERQUE    PTSUNNY   56  45  66 CALM      30.11F
DOUBLE EAGLE   PTSUNNY   52  45  76 NE5       30.13S
MORIARTY ARPT  FAIR      49  42  79 SE5       30.16F
CLINES CORNERS CLOUDY    46  43  89 SW9       30.15S
BELEN          PTSUNNY   55  45  68 SE8       30.11F
SOCORRO        FAIR      56  48  74 CALM      30.11S

$$
NMZ524>526-539-540-221600-
SOUTHCENTRAL MOUNTAINS

CITY           SKY/WX    TMP DP  RH WIND       PRES   REMARKS
RUIDOSO        FOG       46  46 100 E3        30.20R VSB 1/4

$$
NMZ527>531-221600-
NORTHEAST HIGHLANDS/NORTHEAST PLAINS

CITY           SKY/WX    TMP DP  RH WIND       PRES   REMARKS
LAS VEGAS      CLOUDY    46  43  89 S18       30.14R
RATON          CLOUDY    43  41  93 W3        30.11R
CLAYTON        CLOUDY    52  46  80 S22G31    30.09S

$$
NMZ532>537-221600-
EASTCENTRAL PLAINS

CITY           SKY/WX    TMP DP  RH WIND       PRES   REMARKS
CANNON AFB     CLOUDY    52  51  95 SE6       30.14S
CLOVIS AIRPORT CLOUDY    52  48  87 SE8       30.15S

$$
NMZ028-029-538-221600-
SOUTHEAST PLAINS

CITY           SKY/WX    TMP DP  RH WIND       PRES   REMARKS
ROSWELL        CLOUDY    56  51  84 E5        30.12S
ARTESIA        CLOUDY    55  55 100 CALM      30.13S
CARLSBAD       CLOUDY    58  53  84 CALM      30.11R
HOBBS          CLOUDY    55  55 100 CALM      30.14R


$$



USA.gov is the U.S. government's official web portal to all federal, state and local government web resources and services.